Retour au catalogue

STARLINK-36663

ActifCommunicationsVLEO
NORAD 67919·PAYLOAD·🇺🇸 United States

Lancé Feb 22, 2026 depuis Vandenberg Space Force Base

Loading…

Prochains Passages (prochaines 24 heures)

TLE

FraisSource: CelesTrak SupGP

Époque: Sep 14, 2026, 21:25 UTC

1 67919C 26036R   26257.89284722  .00036851  00000+0  13353-2 0  2579
2 67919  42.9997 256.3747 0001375 263.2598  52.4218 15.27548070    11

Suivez STARLINK-36663 en temps réel avec AllMySat

Download on the App Store